Regional Weather Roundup
Issued by NWS

Current Version | Previous Version | Text Only | Print | Product List | Glossary On
Versions: 1 2 3 4 5 6 7 8 9 10 11 12 13 14 15 16 17 18 19 20 21 22 23 24 25 26 27 28 29 30 31 32 33 34 35 36 37 38 39 40 41 42 43 44 45 46 47 48 49 50
000
ASUS45 KCYS 260410
RWRWY

WYOMING REGIONAL WEATHER ROUNDUP
NATIONAL WEATHER SERVICE CHEYENNE WY
900 PM MST SUN JAN 25 2015

NOTE:  "FAIR" INDICATES FEW OR NO CLOUDS BELOW 12,000 FEET
WITH NO SIGNIFICANT WEATHER AND/OR OBSTRUCTIONS TO VISIBILITY.

WYZ001-260500-
YELLOWSTONE NATIONAL PARK

CITY           SKY/WX    TMP DP  RH WIND       PRES   REMARKS
LK YELLOWSTONE   N/A     29  26  89 CALM      30.47S
W YELLOWSTONE  NOT AVBL

$$
WYZ002>013-054>058-071-098>099-260500-
NORTHERN WYOMING

CITY           SKY/WX    TMP DP  RH WIND       PRES   REMARKS
JACKSON        NOT AVBL
CODY           FAIR      55  25  30 W8        30.18R
GREYBULL       FAIR      25  22  88 CALM      30.19R
WORLAND        FAIR      25  22  88 CALM      30.18R
SHERIDAN       FAIR      43  28  55 VRB3      30.05S
BUFFALO        FAIR      46  26  45 SE8       30.09R
GILLETTE       FAIR      41  30  65 W12       30.07R
HULETT           N/A    N/A N/A N/A MISG        N/A
NEWCASTLE      FAIR      36  30  80 NW3       30.06S

$$
WYZ014>020-022>026-101>103-260500-
CENTRAL WYOMING

CITY           SKY/WX    TMP DP  RH WIND       PRES   REMARKS
BIG PINEY      FAIR      32  26  78 N9        30.37S WCI  24
PINEDALE       FAIR      36  28  75 W20       30.34S WCI  25
DUBOIS         FAIR      45  21  39 W28G36    30.30R
LANDER         FAIR      43  27  53 NE3       30.22R
RIVERTON       FAIR      36  28  73 W12       30.23R WCI  28
CASPER         FAIR      41  28  60 SW13      30.18R
DOUGLAS        FAIR      34  27  75 W5        30.16R WCI  30

$$
WYZ021-027>030-104>119-260500-
SOUTHERN WYOMING

CITY           SKY/WX    TMP DP  RH WIND       PRES   REMARKS
EVANSTON       FAIR      37  29  72 CALM      30.43F
KEMMERER       FAIR      34  30  86 NW7       30.42F WCI  28
FORT BRIDGER   FAIR      38  32  79 SW14      30.44S WCI  30
ROCK SPRINGS   FAIR      34  26  72 SW12      30.36F WCI  25
DIXON          FAIR      29  26  87 SE9       30.41F WCI  21
RAWLINS        FAIR      38  27  64 W16G31    30.31R WCI  29
SARATOGA       FAIR      32  27  80 MISG      30.34R
LARAMIE        FAIR      33  24  69 N6        30.25R WCI  28
CHEYENNE       FAIR      41  24  51 W8        30.20R
TORRINGTON     FAIR      42  31  64 NW10      30.12R
PINE BLUFFS    FAIR      39  28  65 W14       30.18R WCI  31

$$


USA.gov is the U.S. government's official web portal to all federal, state and local government web resources and services.